CAPE
2190 1628 2234 2282 2347 1964 2133 2023 2058 1965 1871 1900 1958 1915 1921 1826 1634 1484 1506 1652 1756 1669 1570 1659 1533 1176 1174 937 1477 1278 1070 954 970 1138 1272 1473 1550 1635 1735 1678 1435 1281 1042 922 789 654 639 611 527 430 350 272 250 497 535 644 617 650 594 510 444 304
2187 1541 2312 2174 2303 2163 2208 1914 1866 1958 1865 1885 1925 1932 1748 1361 1402 1229 1428 1740 1844 1903 1400 1371 1317 1064 988 1138 1279 1208 1053 910 952 1206 1433 1357 1488 1482 1557 1646 1427 1184 1012 824 695 696 696 651 485 364 310 251 553 626 818 791 716 522 572 556 373 277
1770 1659 1922 2205 2189 2170 2238 2154 1974 1980 1429 1421 1571 1559 1301 1205 1516 1189 1546 2076 1979 2005 2076 1790 1527 992 1089 903 1292 1234 1077 1061 954 1238 1492 1406 1465 1406 1337 1386 1292 1038 907 719 991 948 846 590 378 331 240 542 570 730 935 875 732 682 621 457 385 328
1927 1730 1861 1582 2029 2262 2251 2372 2214 2132 1935 1823 2003 1656 1481 1556 1586 1710 2121 2142 2246 2181 2152 2202 1369 1400 1148 1074 1289 1282 1110 951 975 1084 1328 1510 1388 1438 1325 1258 1137 945 763 713 1130 886 785 573 278 349 581 527 464 673 832 784 575 525 567 494 349 254
2399 2258 1887 2163 2210 2279 2467 2414 2249 2018 1934 1179 1846 1998 1835 1830 2021 2049 1923 2215 2344 2378 2218 2088 1971 1323 809 958 1045 991 954 583 620 834 1187 966 1124 1376 1439 1386 1149 628 972 1173 1067 959 810 629 591 539 542 529 624 722 671 708 663 655 591 394 258 144
2370 2232 2464 2433 2445 2384 2597 2367 2301 2158 1926 1888 1949 1928 2242 2227 2135 2246 2124 2248 2298 2445 2383 1948 1831 1509 1181 943 933 866 712 464 438 499 741 704 805 1174 1279 1112 872 933 1191 1176 1249 948 732 623 621 606 557 568 628 692 603 531 391 531 486 359 187 137
2694 2731 2693 2618 2511 2469 2543 2450 2438 2310 2079 1849 2102 1902 1953 2368 2304 2468 2415 2262 2446 2514 2097 1835 1963 2029 1352 1075 859 824 737 806 642 498 571 647 818 1121 940 1064 1260 1166 1237 1152 983 853 749 713 710 633 591 603 678 589 556 406 388 406 329 307 234 178
2902 2862 2839 2656 2733 2650 2698 2639 2554 2116 2028 2149 1910 1803 1870 2351 2529 2441 2408 2399 2563 1771 1588 1969 2230 2119 2012 1270 1056 881 832 829 511 494 457 483 754 840 893 972 995 1185 1043 1034 808 721 721 783 738 709 632 647 687 588 578 475 414 349 324 224 258 158
2438 2157 2586 2539 2586 2669 2746 2848 2640 2498 2139 1916 1765 1617 1392 1582 2258 2483 2596 2349 2251 1816 1312 1009 1561 2284 1735 1311 1172 933 854 799 722 445 389 382 590 749 914 998 956 1122 1064 1005 936 834 702 764 834 803 696 671 878 835 648 515 424 316 317 282 307 155
2097 2124 2102 2736 2559 2529 2724 2727 2709 2573 2306 1869 1761 1487 1544 1556 1706 2038 2189 2319 1803 1808 1493 1395 1370 1653 1716 1385 1330 1137 838 993 856 665 414 483 532 698 1026 935 1139 1070 970 952 903 847 774 769 674 824 749 810 706 699 615 538 360 334 303 145 261 158
2168 2064 2208 2194 2428 2496 2667 2678 2478 2469 2234 2060 1811 1681 1637 1551 1593 1711 1818 2446 2154 1937 2153 1892 1681 1581 1596 1279 1375 1203 1024 1004 969 655 502 420 558 603 1040 1046 1194 1111 1052 982 956 892 855 764 723 820 813 692 799 631 448 441 340 225 183 247 251 229
2142 2203 2312 1967 2149 2324 2418 2562 2579 2388 2310 2184 2057 2067 1897 1808 1682 1699 1779 2394 2455 2183 2071 2204 2165 2100 1825 1333 1360 1402 1225 1196 1154 777 724 543 510 664 892 894 1092 1040 941 972 1021 1000 918 917 893 744 771 793 631 578 501 405 390 407 374 348 283 205
2014 2076 2272 2074 1854 1931 2278 2365 2426 2378 2305 2242 2279 2208 2089 1997 1868 1748 1870 2292 2249 2086 2079 2095 2208 2199 1770 1540 1335 1257 1214 1137 1002 878 863 800 555 763 711 850 934 956 988 962 944 975 959 942 884 866 843 909 550 505 592 373 460 481 399 384 306 295
1656 1489 1279 1334 1232 1448 2059 2202 2135 2253 2181 2355 2252 2215 2084 2022 1910 1726 1829 2136 2155 1918 1896 2018 2014 2067 1807 1601 1549 1204 1163 1152 1061 1142 887 1014 678 626 629 791 772 896 902 949 926 888 902 1014 934 857 893 680 675 763 670 458 547 457 462 393 360 300
906 1230 994 1203 952 1034 1167 1384 1542 1887 1914 2256 2153 2100 2130 1985 1779 1858 1857 1671 2249 2088 1575 1866 1916 2018 1743 1682 1762 1590 1187 1163 1036 990 966 962 793 591 563 685 666 704 899 832 755 764 914 1068 897 730 790 666 785 704 683 628 485 561 528 532 392 379
959 1396 1195 998 923 991 1038 1058 1253 1589 1699 1969 2063 2003 2036 2005 1839 1889 1941 1857 1770 2077 1326 1234 1539 1029 1230 1765 1708 1664 1509 1450 1385 1033 886 781 915 700 611 643 598 656 854 815 782 814 768 1011 810 738 786 697 665 693 909 832 815 775 653 514 618 738
1174 1260 1256 940 1034 1335 1647 1704 1625 1476 1710 1910 2054 2047 1981 2027 1792 1796 1904 1735 1781 2031 1927 1231 1231 1423 1730 1774 1702 1685 1624 1639 1533 1235 1009 918 846 721 794 686 771 675 710 744 775 760 767 988 776 746 684 644 580 615 994 1068 845 727 660 738 910 459
1510 1474 1360 1240 1293 1458 1629 1690 1688 1910 1968 1919 2086 2036 2086 2008 1936 1832 1822 1698 1694 1951 1889 1522 1205 1132 1734 1601 1755 1815 1682 1523 1305 1251 1151 1024 879 692 764 931 1022 858 1003 788 668 711 837 736 712 705 571 650 573 657 1142 1150 1116 658 848 735 749 702
1734 1537 1258 1392 1172 1216 1463 1837 1730 1850 1793 1940 1998 2050 2114 2094 1988 1927 1785 1604 1571 1644 1754 1700 1358 1099 1278 1617 1760 1685 1695 1341 1104 1033 1014 1020 829 679 812 1189 1452 1347 1216 974 773 654 695 550 633 595 493 571 886 1173 1248 1159 1115 921 928 895 1028 862
1943 1488 1207 1404 1317 1274 1342 1341 1407 1773 1673 1778 1994 1950 1994 1937 1890 1803 1589 1540 1697 1663 1611 1835 1665 1169 1004 1230 1916 1601 1612 1197 1164 1279 1132 802 545 625 1009 1396 1381 920 754 663 638 613 639 579 547 527 659 782 1036 1238 1188 1117 1232 1199 1153 939 802 661
2567 1843 1564 1317 1214 1144 1217 1361 1417 1511 1722 1985 1937 1792 1551 1806 1827 1786 1775 1555 1535 1499 1576 1452 1066 1034 991 1078 955 1095 1317 1238 1258 1353 1307 982 649 571 868 1674 1294 721 727 718 600 627 591 592 476 832 781 886 1082 1126 1203 1080 1082 1166 979 703 533 570
2263 1593 1474 1549 1431 1164 1347 1454 1537 1595 1706 1857 1856 1798 1754 1582 1658 1623 1644 1635 1677 1560 1532 1623 943 870 866 962 1031 1014 978 1083 1052 1633 1751 1600 1421 1186 954 984 1407 874 794 745 686 640 658 633 754 757 729 728 819 950 1183 1182 931 914 971 1069 670 517
1286 1230 1389 1573 1572 1525 1462 1568 1624 1691 1799 1903 2146 2182 2139 1996 1974 1872 1778 1586 1306 1116 1050 1195 1376 918 923 939 951 987 826 855 648 1238 1884 1823 1850 1716 1680 1503 1092 718 786 786 762 711 701 758 770 906 728 622 572 704 897 1000 934 753 614 793 563 683
1416 1425 1400 1508 1389 1607 1646 1793 1842 1889 1638 1695 1563 2040 2131 2000 1892 1841 1692 1438 1194 1121 972 895 949 1108 814 756 840 938 819 680 754 1636 1519 1557 1657 1766 1943 1492 1085 879 660 614 570 591 860 1154 1043 727 391 439 666 569 513 196 452 508 872 1007 915 1146
1334 1284 1272 1211 1318 1506 1583 1699 1759 1579 1535 1582 1504 1271 1153 1430 1646 1816 1589 1498 1277 845 718 988 1215 1205 1355 1016 656 697 741 736 616 948 1587 1554 1542 1437 1453 1478 1326 1297 1067 1098 944 1116 1009 1111 1053 951 867 577 536 489 573 825 677 765 686 569 1043 828
1115 1222 1268 1390 1435 1652 1711 1680 1658 1422 1304 1342 1473 1364 1341 1329 1540 1739 1490 1352 1153 909 870 947 1096 1282 732 570 586 676 760 674 517 971 876 1634 1478 1564 1518 1404 1427 1328 1132 1186 1160 855 964 954 1333 1113 752 1356 1090 379 431 750 624 613 548 430 488 395
1294 1214 1240 1432 1467 1527 1613 1684 1533 1362 1399 1503 1304 1422 1421 1514 1483 1538 1288 1375 1365 1378 1020 852 1077 1162 958 503 633 1030 659 671 580 579 1217 2020 1765 1289 1029 1275 1197 1176 1215 1382 604 814 1039 1038 872 460 853 1234 867 646 420 755 712 447 632 547 731 776
1080 1188 1355 1331 1548 1541 1880 1652 1649 1622 1867 1914 1842 1798 1685 1435 1328 1066 1256 1190 1288 1355 1313 1074 872 872 964 716 529 545 596 648 707 651 821 1603 1808 1452 1097 1236 1236 1172 1317 804 328 733 963 875 420 491 860 1032 923 688 748 840 903 732 477 367 703 697
1049 1091 1429 1337 1321 1494 1500 1559 1569 1458 1724 1704 1742 1337 1000 1011 855 876 1058 1332 1234 914 990 1227 969 796 667 588 594 522 532 630 614 566 590 1399 1564 1228 903 1140 1507 1484 1607 628 913 885 681 411 558 954 829 936 884 856 695 870 1126 915 537 445 547 644
779 940 1125 1293 1265 1290 1499 1372 1352 1429 1828 1681 1537 1288 1089 900 928 822 1108 1030 1424 1122 839 1242 907 528 677 366 311 416 422 503 532 514 757 692 752 669 625 837 1057 910 1433 1433 1324 666 365 808 835 1222 896 982 959 809 778 777 924 950 856 694 666 472
556 474 777 1125 1287 1288 1327 1258 1324 1305 1369 1389 1092 1076 968 963 822 754 1217 1126 1305 1087 908 960 826 892 641 275 260 324 456 468 452 712 666 415 682 940 730 759 1077 1044 948 1281 531 377 491 516 991 541 646 745 871 861 880 822 988 967 924 754 593 557
513 553 515 483 665 851 915 943 975 923 922 764 841 790 884 907 1000 907 889 1054 1082 908 863 1025 1004 786 348 263 326 391 366 409 589 892 629 629 620 583 782 814 988 1120 1017 893 410 582 583 1450 991 680 904 918 932 836 722 606 606 536 672 721 638 556
699 585 521 461 430 463 776 862 915 827 809 876 836 940 952 903 1000 946 898 942 1299 1073 990 978 900 636 511 399 480 326 396 568 534 536 569 570 468 611 848 684 813 917 1281 666 892 854 1185 628 798 53 446 1006 1052 813 683 588 496 554 708 792 616 584
744 668 576 508 450 341 503 813 762 769 764 739 774 924 932 863 939 946 1000 897 1476 1311 1206 1057 1000 1057 818 729 421 466 499 534 502 567 552 538 638 814 750 683 672 1168 606 668 534 797 1056 1309 1253 715 895 1241 1045 814 810 608 564 634 718 760 754 663
288 416 475 475 439 400 367 326 523 642 688 731 849 940 982 871 902 818 802 983 1000 1341 1388 1240 1082 1067 816 912 755 548 567 603 465 491 548 510 486 518 696 811 976 1142 475 614 500 790 1067 1176 1177 930 588 804 1024 870 842 435 620 777 687 892 797 591
1 1 114 213 256 282 270 190 246 302 527 732 785 746 880 861 865 1121 1058 971 1102 1282 1213 1280 1286 1128 998 951 907 721 636 680 680 698 487 707 684 494 444 519 927 464 440 603 692 596 983 873 1161 1012 606 1034 1319 884 836 861 859 847 709 742 635 641
0 0 40 1 2 26 217 44 212 234 416 469 761 754 771 1087 1277 1076 1197 908 977 1027 1067 1194 1213 967 886 942 1028 822 418 646 670 707 798 822 796 723 830 488 532 364 703 456 427 776 922 871 1084 999 430 731 1062 1029 1244 1423 1157 942 790 717 676 715
Wind_Speed
24 26 25 25 26 26 26 26 24 25 25 24 24 23 21 21 22 22 23 24 26 26 29 30 30 29 30 25 23 23 22 22 22 22 21 20 22 21 19 21 23 23 23 23 22 20 20 20 20 18 19 17 18 13 14 14 15 15 17 17 18 19
24 25 23 24 24 24 24 22 20 22 22 23 22 20 17 18 20 21 22 24 23 23 24 27 27 30 24 26 23 21 21 21 22 22 21 20 22 23 23 22 23 25 24 24 23 17 17 19 19 19 16 16 13 17 15 14 14 15 17 18 19 20
25 24 25 25 23 24 24 19 18 18 19 21 19 15 15 17 19 21 22 22 21 21 22 24 25 26 25 24 25 22 21 20 20 21 21 22 23 25 25 24 24 25 24 22 17 16 15 16 18 18 16 12 15 15 15 14 14 15 17 19 19 22
23 25 24 22 22 24 22 18 17 17 17 18 17 13 15 15 17 19 21 21 20 21 22 23 26 30 30 26 25 22 20 20 20 20 23 23 25 25 27 25 24 24 20 16 17 16 16 17 17 16 14 15 16 16 14 14 15 16 18 20 20 21
22 23 23 23 24 22 21 18 18 17 16 18 16 15 15 15 17 19 19 20 20 22 21 22 24 25 25 25 24 20 16 15 16 19 19 23 23 24 23 23 20 18 15 16 16 17 16 17 17 17 17 16 16 16 16 15 15 16 18 19 19 17
22 23 23 23 23 24 20 19 19 18 18 18 18 18 17 17 18 20 20 21 21 22 21 21 22 22 24 24 22 19 16 16 16 19 18 21 23 23 23 22 18 15 16 18 18 17 17 17 17 17 18 17 17 16 16 15 15 15 17 17 18 17
23 23 23 22 22 23 21 20 19 19 17 17 18 18 19 19 20 21 21 21 21 21 21 20 21 21 21 22 21 17 16 17 17 18 17 19 22 22 22 20 16 15 18 20 19 19 18 17 17 18 18 17 17 17 15 15 15 16 16 17 18 18
23 24 23 22 22 21 21 20 20 20 17 17 16 17 19 19 21 21 21 21 20 20 20 20 19 21 20 19 20 18 17 18 18 18 18 18 21 22 21 19 16 17 19 21 20 19 19 19 18 17 18 17 17 16 14 14 15 15 16 17 17 17
23 23 22 22 21 20 21 20 21 19 18 18 15 16 18 20 20 20 20 20 20 19 19 19 18 20 19 18 19 19 19 19 20 19 18 18 21 21 21 19 18 19 20 21 21 20 19 19 18 18 17 17 16 16 15 14 14 14 15 16 17 18
22 20 20 21 20 21 21 21 21 19 20 18 16 17 18 18 18 19 20 20 19 19 19 18 18 18 18 18 17 17 19 20 19 20 19 18 20 21 21 20 19 20 21 21 21 21 19 19 18 18 16 17 15 16 15 14 13 14 15 15 17 18
21 19 19 19 21 22 22 21 21 21 20 18 19 18 18 18 18 19 20 21 20 20 19 18 17 17 17 17 17 16 17 19 20 20 20 19 19 20 21 21 19 20 21 20 21 21 19 19 18 17 16 16 14 15 15 14 13 13 15 16 16 16
20 19 19 20 22 21 22 22 22 21 21 20 20 19 19 19 19 20 21 22 22 21 19 18 17 16 16 17 17 16 17 18 20 21 20 20 20 19 20 21 20 20 21 21 20 20 20 18 17 16 16 16 14 15 15 14 14 13 13 15 16 16
22 21 19 20 21 21 22 22 23 21 22 22 20 19 20 20 20 19 20 22 23 22 20 19 18 17 17 16 17 17 17 18 19 21 21 21 21 20 21 22 21 20 22 21 19 20 19 18 17 16 17 15 14 14 14 14 14 14 13 13 14 15
24 21 22 20 21 18 21 21 22 22 22 21 20 20 21 21 20 19 19 22 22 22 21 19 19 18 17 18 18 18 18 18 19 21 22 21 21 20 21 22 22 21 22 20 18 19 18 17 17 16 15 15 14 15 13 13 14 13 12 13 14 14
16 19 19 19 18 17 18 18 21 21 21 19 20 20 21 21 20 19 19 20 22 23 18 20 20 18 18 18 19 19 19 20 20 21 21 21 20 21 21 21 22 21 21 19 18 17 16 16 16 15 16 15 15 14 12 13 13 12 12 13 12 14
16 19 18 18 18 20 20 21 18 20 21 21 20 21 21 20 20 20 20 19 22 23 23 18 21 17 17 19 19 19 21 22 22 23 21 21 20 20 21 20 21 20 20 19 18 17 16 16 15 16 16 16 14 12 11 12 12 11 11 12 13 14
19 19 19 20 19 20 22 21 21 21 21 22 22 22 21 21 21 20 19 19 21 22 23 20 18 18 21 19 18 19 22 23 23 23 23 22 20 19 20 21 21 20 19 19 18 17 16 15 15 15 16 14 13 11 10 11 12 11 11 10 12 13
19 20 23 24 23 22 22 23 23 23 22 22 22 22 22 22 22 21 20 20 20 21 21 24 21 18 20 19 19 20 21 23 24 25 24 22 20 19 20 21 21 21 19 18 17 17 16 15 15 15 15 13 13 11 10 11 10 10 9 11 12 13
18 20 25 30 26 23 22 23 24 24 24 23 22 23 24 24 23 23 21 20 20 20 22 24 25 21 18 20 19 21 21 24 25 26 25 23 21 19 20 21 21 22 20 18 17 16 15 15 15 15 14 13 13 10 11 11 10 9 9 11 13 12
18 21 24 27 29 26 24 23 22 23 24 24 24 25 25 25 26 24 21 21 21 20 21 23 25 26 21 21 22 21 22 24 25 26 25 23 22 20 21 20 20 20 20 18 17 16 16 16 17 16 15 14 12 11 10 11 10 10 9 11 12 12
19 21 23 28 27 26 27 26 23 22 23 25 26 27 26 27 28 25 22 22 23 24 24 25 25 25 24 25 25 22 23 25 24 23 23 23 22 20 21 21 22 21 19 17 17 17 16 16 17 17 15 13 12 10 11 9 9 9 10 11 13 11
18 19 17 20 22 24 25 27 27 24 22 24 28 30 29 29 29 28 26 25 25 26 26 23 24 24 24 25 27 26 28 27 21 22 23 23 21 21 21 21 21 20 18 16 17 17 16 17 16 14 13 13 12 12 10 9 8 10 10 11 12 12
19 17 17 17 18 20 23 26 27 25 23 25 28 28 29 28 28 27 27 27 26 26 24 22 23 26 26 25 26 26 27 27 21 21 24 24 22 22 22 21 20 18 18 18 18 17 15 14 14 13 10 12 12 10 12 8 9 10 11 12 12 13
20 19 18 19 17 18 20 23 23 19 20 22 25 30 31 29 25 25 26 26 26 27 25 23 24 25 27 27 25 24 25 25 23 24 24 24 23 23 23 21 20 19 18 19 17 17 15 12 16 15 11 11 13 10 12 8 9 12 12 12 12 13
23 22 20 18 17 16 18 20 21 17 18 21 23 24 25 26 26 26 26 25 24 25 24 24 25 25 26 28 28 24 24 22 22 23 24 23 23 21 22 21 21 21 19 20 20 19 15 12 12 11 13 16 15 12 9 15 15 14 13 13 12 14
23 22 21 19 17 19 21 22 21 19 20 22 23 25 22 23 25 27 26 25 23 24 25 24 24 25 27 29 28 26 24 24 22 27 22 22 22 22 20 19 19 19 21 20 20 19 16 13 13 11 8 13 16 15 12 15 13 14 13 11 12 13
22 21 22 20 21 23 24 23 20 18 19 20 21 24 25 25 25 27 27 24 22 24 25 23 23 24 26 28 29 29 27 28 27 26 24 22 22 22 19 17 19 19 21 24 23 18 15 15 16 12 9 12 13 12 11 13 13 14 13 12 11 14
22 22 23 22 20 21 21 22 19 17 19 20 21 22 24 26 28 27 23 21 22 23 23 23 23 24 26 27 29 31 29 29 31 27 23 20 20 21 18 17 19 19 22 23 21 18 15 15 13 13 12 10 12 12 12 12 12 10 12 11 13 13
21 21 22 23 22 20 20 19 19 19 20 21 22 22 23 24 25 26 23 22 21 21 23 25 27 27 25 26 29 29 28 28 28 24 20 20 20 20 17 17 20 21 20 20 19 20 18 14 11 12 15 12 12 11 12 13 13 11 8 10 12 15
21 21 22 23 23 22 21 21 20 20 20 21 23 23 23 22 23 24 24 23 23 23 24 27 29 26 24 26 27 23 22 25 27 22 24 21 17 18 16 17 17 18 19 19 20 18 13 13 11 13 16 16 15 13 13 13 13 12 9 6 9 14
23 21 23 24 24 24 23 22 22 22 22 23 24 25 25 24 24 24 24 24 23 23 24 25 28 28 26 28 26 20 17 22 23 21 22 19 16 17 18 16 14 14 16 19 19 14 10 9 15 16 13 16 16 13 13 13 14 13 10 10 9 12
24 24 23 23 23 24 23 24 24 25 25 26 26 26 25 25 26 27 27 26 26 25 24 24 26 26 24 25 25 21 18 19 20 21 20 21 19 20 20 18 15 15 16 19 16 12 12 14 14 18 15 16 15 14 13 12 15 12 13 10 10 12
25 25 25 25 24 22 22 23 24 25 25 26 26 26 26 26 27 28 30 30 32 29 25 25 25 22 21 23 25 24 21 20 22 19 19 19 18 18 20 19 16 16 17 18 19 16 16 14 15 nan 15 16 15 14 14 14 15 15 13 11 12 12
26 26 25 25 24 24 23 23 23 24 25 27 27 28 29 29 28 29 29 29 32 30 28 26 23 19 20 21 23 24 22 20 20 18 19 20 19 18 18 17 19 21 17 18 20 17 15 15 16 14 14 18 17 15 14 16 16 15 13 12 12 12
24 25 25 25 24 24 24 24 25 26 27 27 28 29 30 32 30 29 29 29 30 30 29 29 26 21 19 21 21 22 22 20 19 19 20 22 21 20 19 19 21 23 20 17 22 18 16 16 19 14 17 15 19 15 18 16 16 14 13 13 12 14
nan nan 22 23 23 23 24 24 26 27 27 27 28 29 31 32 31 28 29 30 30 29 28 28 28 23 21 21 21 21 22 20 21 21 21 20 21 20 19 20 22 22 18 21 21 17 17 17 17 16 15 17 18 16 17 16 16 16 14 15 13 14
nan nan nan nan nan nan 24 nan 26 27 28 28 27 28 30 32 31 27 27 30 31 29 27 27 27 24 21 21 20 21 22 21 20 20 21 21 21 20 22 22 21 21 21 23 23 21 20 17 19 19 23 18 17 18 18 17 17 16 16 14 14 15
Wind_Direction
325 321 319 316 313 311 308 308 302 296 295 292 288 291 295 295 297 302 304 301 304 309 306 304 307 304 306 307 297 301 308 307 307 304 308 307 306 310 313 312 305 299 296 294 292 293 294 298 299 303 306 325 343 330 296 301 300 304 301 300 297 290
322 316 320 315 308 305 305 307 300 298 297 294 294 298 301 302 304 301 308 302 305 304 306 306 306 303 305 300 304 303 303 305 303 298 296 299 301 307 311 308 304 300 296 297 307 303 301 296 299 302 317 330 337 294 300 296 292 294 294 295 295 297
324 321 320 315 306 301 303 295 293 290 286 295 294 298 296 305 302 303 304 301 300 301 304 303 304 305 302 296 296 303 295 298 297 293 290 293 298 304 309 311 303 301 301 314 320 296 300 301 299 307 322 330 291 293 288 287 293 293 289 289 292 290
323 319 311 310 306 299 297 290 282 281 280 284 283 282 293 301 297 299 298 298 297 300 302 301 302 299 300 304 299 300 292 290 292 291 289 293 297 302 307 305 303 303 307 317 291 299 294 294 298 303 296 290 289 291 291 287 282 285 291 292 290 293
317 315 314 305 301 295 291 283 277 277 276 276 267 265 280 293 296 300 303 297 300 300 301 302 306 308 310 307 305 301 295 290 291 293 304 297 302 301 311 308 302 310 304 297 293 284 289 291 293 292 287 286 290 288 283 281 284 286 288 287 286 292
317 316 311 304 299 288 287 281 278 275 274 271 264 262 275 288 295 300 300 298 301 301 302 304 307 308 309 308 306 301 295 286 290 294 301 298 298 303 306 308 308 308 297 294 289 287 285 289 290 290 288 289 290 294 286 279 278 283 283 284 288 288
316 314 311 300 293 288 287 277 273 273 273 272 265 268 279 287 292 296 297 298 301 303 304 305 307 305 307 307 303 297 289 287 291 293 297 293 295 300 306 309 308 298 293 293 293 288 289 289 287 289 290 292 293 288 283 280 282 278 279 283 283 284
316 312 306 297 290 286 280 275 269 267 267 266 268 270 279 283 284 289 294 296 301 303 305 302 304 303 303 306 301 295 288 292 292 294 295 292 294 300 303 306 306 296 293 293 293 291 287 288 290 287 287 289 294 292 281 277 274 277 284 289 292 288
315 312 299 291 286 278 275 272 267 265 263 263 264 267 271 277 280 283 290 296 299 299 301 300 302 300 301 304 301 297 296 295 296 296 295 295 297 298 297 300 300 296 292 293 291 288 287 288 288 289 288 290 287 285 284 279 281 279 280 289 290 286
308 300 291 284 277 274 269 266 264 260 259 261 258 260 266 270 275 281 286 293 297 296 295 296 298 299 299 301 299 298 297 294 292 289 293 294 292 291 293 294 295 293 292 293 290 287 287 288 288 285 288 288 292 287 284 282 282 283 283 280 286 290
300 290 280 276 271 266 261 258 257 255 254 254 254 257 261 266 273 280 285 289 291 293 293 295 295 296 294 293 292 292 292 291 288 288 291 294 291 288 288 290 291 289 287 287 286 285 287 287 287 287 285 289 286 283 280 279 276 276 285 288 290 301
280 274 269 267 262 255 253 250 250 247 248 249 253 254 260 266 271 278 286 290 292 294 296 294 291 290 285 283 282 283 283 285 286 285 290 292 291 287 286 287 288 285 282 280 282 283 281 285 284 282 282 281 283 278 278 279 282 281 277 284 295 298
265 263 265 258 257 252 248 247 246 244 245 247 252 255 260 266 272 280 287 292 294 298 297 294 291 289 282 277 274 274 275 279 282 285 288 293 293 286 283 283 285 283 281 281 280 279 280 280 279 276 279 281 277 274 271 280 281 285 288 295 295 299
250 257 253 235 235 249 255 252 247 245 245 250 253 257 263 266 272 280 287 293 297 301 303 297 295 291 283 277 272 272 272 271 274 281 283 287 287 284 281 283 285 281 279 279 279 278 279 279 277 274 275 273 271 270 274 279 279 283 290 293 294 297
261 281 294 283 278 268 258 254 252 258 259 259 261 264 269 275 279 282 287 293 297 296 301 304 298 287 285 283 278 273 271 268 269 275 280 283 282 281 281 285 285 284 279 277 275 273 274 273 273 271 267 266 267 270 275 274 278 284 288 288 296 297
292 290 296 285 273 267 269 274 272 272 273 275 272 273 276 278 281 285 290 294 302 304 305 309 298 293 292 290 284 275 270 266 267 270 274 277 278 280 281 282 283 284 282 277 272 271 269 267 265 264 264 264 266 268 271 277 282 285 284 291 297 298
287 283 285 285 279 270 270 274 275 278 280 282 281 279 280 281 285 290 292 296 299 303 302 300 303 299 293 293 285 277 270 269 268 266 269 273 275 276 277 279 279 280 280 275 271 269 267 263 261 261 263 268 270 268 265 267 275 279 283 292 292 296
292 299 291 286 286 283 284 288 290 285 284 285 286 284 284 288 292 293 295 295 298 301 302 298 298 299 293 291 285 278 274 271 268 267 267 270 272 272 274 273 276 277 277 275 268 268 269 265 260 260 264 267 270 267 259 263 266 274 281 287 289 290
303 300 292 295 300 296 293 293 292 293 293 292 288 288 288 290 291 292 293 297 300 302 304 302 292 285 287 288 286 278 275 275 270 268 266 268 270 271 272 272 277 278 277 272 264 263 263 262 261 258 260 266 264 262 258 257 261 260 272 281 283 289
301 300 295 299 305 303 298 297 296 295 296 294 290 286 286 285 284 287 291 293 295 295 296 292 286 279 272 278 276 279 277 277 275 271 267 268 270 269 272 273 278 282 279 270 258 257 261 260 259 259 259 261 262 263 261 262 263 269 272 284 291 299
306 302 300 304 307 307 303 297 294 293 290 289 292 291 289 287 286 287 289 290 290 288 288 287 279 287 288 281 283 276 268 275 277 274 267 262 266 269 270 267 269 274 276 267 258 256 259 258 261 259 260 267 264 262 263 265 266 273 280 287 288 298
288 291 295 300 304 308 305 301 300 296 290 286 289 295 297 296 295 292 294 289 283 281 285 288 290 293 291 286 286 283 280 268 265 275 268 258 260 262 265 266 267 273 270 261 255 261 259 261 260 263 272 268 260 258 262 265 278 284 286 285 293 296
285 283 289 294 297 300 306 310 304 292 288 282 281 286 290 290 293 293 294 292 288 289 293 297 299 298 292 291 288 283 282 279 268 270 270 259 258 261 258 264 269 269 265 252 252 258 262 262 256 269 274 273 269 268 266 265 280 289 291 295 299 304
270 275 285 291 290 291 303 316 314 292 279 281 284 288 289 286 287 291 296 294 289 290 292 295 298 302 298 296 293 284 280 280 270 267 272 261 255 256 253 255 263 263 255 252 254 259 257 254 229 254 269 274 269 267 273 285 286 285 289 296 304 304
277 273 274 277 291 297 305 320 323 305 280 278 285 291 293 292 292 293 295 297 295 291 293 295 297 302 298 293 288 282 281 280 273 270 265 261 255 251 250 251 258 257 252 246 252 255 258 254 248 232 231 257 262 270 264 261 283 277 290 295 306 307
277 277 273 272 281 290 297 307 314 309 292 280 278 286 299 300 294 296 297 293 293 294 293 293 295 299 298 296 293 288 287 279 274 260 256 255 253 246 244 252 259 254 250 242 240 253 251 248 249 249 250 235 237 251 250 268 276 281 289 291 293 301
270 272 275 278 282 290 296 302 306 301 293 285 275 276 284 286 285 279 278 281 288 291 290 290 293 297 299 301 296 288 285 280 270 255 243 248 247 242 242 247 256 254 247 245 239 245 245 251 249 242 250 248 254 260 251 267 277 275 291 290 290 294
271 272 276 277 282 286 290 295 297 289 283 282 278 275 279 282 280 282 287 286 282 284 285 285 287 293 296 300 297 290 282 271 261 240 232 242 242 238 242 245 252 251 246 246 250 246 248 251 258 266 271 270 263 251 253 264 256 257 278 295 296 292
267 272 276 280 282 286 291 290 287 282 278 278 276 274 282 287 285 283 286 287 282 280 282 283 286 293 302 305 298 295 288 277 264 247 239 240 237 238 245 251 254 250 245 248 255 256 250 251 258 259 279 278 272 271 268 269 267 266 271 286 296 302
263 267 268 272 282 289 293 290 287 284 282 279 278 276 277 281 286 285 284 284 284 283 282 283 289 297 301 300 298 292 274 270 267 250 238 233 232 242 241 253 257 247 243 253 253 260 264 252 252 255 260 275 275 273 271 274 274 274 273 264 278 300
258 260 263 265 266 269 273 276 275 273 274 274 275 276 273 273 276 279 283 284 284 280 278 282 288 292 295 296 301 300 277 264 258 248 237 229 224 241 242 250 249 242 248 258 249 243 249 264 259 257 268 272 275 274 275 278 277 277 278 284 285 290
261 261 262 261 263 267 270 273 279 279 280 282 281 279 277 272 268 270 276 280 282 281 280 280 285 292 300 302 302 303 295 279 266 256 239 223 224 229 234 236 237 238 247 259 257 258 263 256 257 238 242 268 273 273 273 269 264 265 276 278 277 280
259 257 260 261 260 259 264 267 267 270 273 276 279 281 278 274 270 270 272 277 280 281 281 280 280 286 293 298 294 297 297 289 276 264 249 236 229 233 237 237 241 239 241 258 260 258 251 256 261 nan 258 265 268 269 270 267 260 266 267 267 283 282
261 260 260 260 262 261 260 261 266 269 271 273 275 276 277 277 273 272 273 275 278 278 279 280 277 278 277 284 288 292 294 288 278 268 258 252 243 236 241 240 241 242 241 249 256 265 261 262 261 263 257 268 271 266 270 269 269 266 270 276 280 281
261 262 263 263 264 260 263 263 263 265 265 269 272 274 274 275 276 277 276 276 276 275 275 275 273 267 266 270 279 288 294 290 279 268 258 252 250 248 245 241 240 242 235 237 245 236 257 262 256 250 246 255 265 266 264 261 268 270 273 277 275 279
nan nan 268 266 264 261 259 261 261 262 265 268 271 271 273 275 276 275 273 273 274 275 275 272 268 263 261 265 274 281 286 285 278 270 266 261 253 253 253 246 241 243 243 242 250 259 254 262 258 255 261 263 261 264 263 266 268 271 271 275 278 273
nan nan nan nan nan nan 261 nan 258 259 261 264 265 266 267 268 271 270 267 268 270 273 276 274 267 257 254 263 269 275 280 283 279 271 267 263 258 255 253 248 247 249 255 258 257 256 256 255 253 248 232 244 256 253 259 261 260 264 270 266 270 273